date,time,SUV Intensity [MED/Hr],UV Index,Daily total [MED],Since Last [MED]
20/03/2023,00:04:17,-0.000,0.0,0.0,0.0
20/03/2023,00:05:16,0.000,0.0,0.0,0.0
20/03/2023,00:06:16,0.000,0.0,0.0,0.0
20/03/2023,00:07:17,0.000,0.0,0.0,0.0
20/03/2023,00:08:15,0.000,0.0,0.0,0.0
20/03/2023,00:09:16,0.000,0.0,0.0,0.0
20/03/2023,00:10:15,0.000,0.0,0.0,0.0
20/03/2023,00:11:15,0.001,0.0,0.0,0.0
20/03/2023,00:12:15,0.000,0.0,0.0,0.0
20/03/2023,00:13:16,0.000,0.0,0.0,0.0
20/03/2023,00:14:15,0.000,0.0,0.0,0.0
20/03/2023,00:15:16,0.001,0.0,0.0,0.0
20/03/2023,00:16:16,-0.001,0.0,0.0,0.0
20/03/2023,00:17:16,0.000,0.0,0.0,0.0
20/03/2023,00:18:16,0.000,0.0,0.0,0.0
20/03/2023,00:19:16,0.001,0.0,0.0,0.0
20/03/2023,00:20:16,0.001,0.0,0.0,0.0
20/03/2023,00:21:16,0.000,0.0,0.0,0.0
20/03/2023,00:22:16,0.000,0.0,0.0,0.0
20/03/2023,00:23:16,0.000,0.0,0.0,0.0
20/03/2023,00:24:16,0.000,0.0,0.0,0.0
20/03/2023,00:25:16,-0.001,0.0,0.0,0.0
20/03/2023,00:26:16,0.001,0.0,0.0,0.0
20/03/2023,00:27:16,0.000,0.0,0.0,0.0
20/03/2023,00:28:16,0.000,0.0,0.0,0.0
20/03/2023,00:29:16,-0.001,0.0,0.0,0.0
20/03/2023,00:30:16,0.001,0.0,0.0,0.0
20/03/2023,00:31:16,0.000,0.0,0.0,0.0
20/03/2023,00:32:15,-0.000,0.0,0.0,0.0
20/03/2023,00:33:16,0.000,0.0,0.0,0.0
20/03/2023,00:34:15,-0.001,0.0,0.0,0.0
20/03/2023,00:35:16,-0.000,0.0,0.0,0.0
20/03/2023,00:36:16,0.000,0.0,0.0,0.0
20/03/2023,00:37:16,0.001,0.0,0.0,0.0
20/03/2023,00:38:16,-0.001,0.0,0.0,0.0
20/03/2023,00:39:16,-0.000,0.0,0.0,0.0
20/03/2023,00:40:16,0.000,0.0,0.0,0.0
20/03/2023,00:41:16,-0.000,0.0,0.0,0.0
20/03/2023,00:42:16,0.000,0.0,0.0,0.0
20/03/2023,00:43:16,0.000,0.0,0.0,0.0
20/03/2023,00:44:16,-0.000,0.0,0.0,0.0
20/03/2023,00:45:18,-0.000,0.0,0.0,0.0
20/03/2023,00:46:16,-0.000,0.0,0.0,0.0
20/03/2023,00:47:16,-0.001,0.0,0.0,0.0
20/03/2023,00:48:16,0.000,0.0,0.0,0.0
20/03/2023,00:49:16,0.000,0.0,0.0,0.0
20/03/2023,00:50:16,0.000,0.0,0.0,0.0
20/03/2023,00:51:16,0.000,0.0,0.0,0.0
20/03/2023,00:52:16,0.001,0.0,0.0,0.0
20/03/2023,00:53:16,-0.001,0.0,0.0,0.0
20/03/2023,00:54:16,-0.001,0.0,0.0,0.0
20/03/2023,00:55:16,0.001,0.0,0.0,0.0
20/03/2023,00:56:16,0.000,0.0,0.0,0.0
20/03/2023,00:57:16,-0.001,0.0,0.0,0.0
20/03/2023,00:58:16,0.001,0.0,0.0,0.0
20/03/2023,00:59:16,0.000,0.0,0.0,0.0
20/03/2023,01:00:15,0.000,0.0,0.0,0.0
20/03/2023,01:01:15,-0.001,0.0,0.0,0.0
20/03/2023,01:02:15,-0.000,0.0,0.0,0.0
20/03/2023,01:03:15,0.001,0.0,0.0,0.0
20/03/2023,01:04:38,0.000,0.0,0.0,0.0
20/03/2023,01:06:16,-0.001,0.0,0.0,0.0
20/03/2023,01:07:16,0.001,0.0,0.0,0.0
20/03/2023,01:08:16,0.000,0.0,0.0,0.0
20/03/2023,01:09:16,0.001,0.0,0.0,0.0
20/03/2023,01:10:16,0.000,0.0,0.0,0.0
20/03/2023,01:11:16,-0.001,0.0,0.0,0.0
20/03/2023,01:12:16,0.001,0.0,0.0,0.0
20/03/2023,01:13:16,0.000,0.0,0.0,0.0
20/03/2023,01:14:16,0.001,0.0,0.0,0.0
20/03/2023,01:15:16,-0.001,0.0,0.0,0.0
20/03/2023,01:16:16,0.000,0.0,0.0,0.0
20/03/2023,01:17:16,-0.001,0.0,0.0,0.0
20/03/2023,01:18:15,0.000,0.0,0.0,0.0
20/03/2023,01:19:15,0.000,0.0,0.0,0.0
20/03/2023,01:20:15,-0.000,0.0,0.0,0.0
20/03/2023,01:21:16,-0.001,0.0,0.0,0.0
20/03/2023,01:22:17,0.000,0.0,0.0,0.0
20/03/2023,01:23:17,0.000,0.0,0.0,0.0
20/03/2023,01:24:16,-0.000,0.0,0.0,0.0
20/03/2023,01:25:17,-0.000,0.0,0.0,0.0
20/03/2023,01:26:16,0.000,0.0,0.0,0.0
20/03/2023,01:27:16,0.000,0.0,0.0,0.0
20/03/2023,01:28:16,-0.001,0.0,0.0,0.0
20/03/2023,01:29:16,0.000,0.0,0.0,0.0
20/03/2023,01:30:16,0.000,0.0,0.0,0.0
20/03/2023,01:31:16,0.000,0.0,0.0,0.0
20/03/2023,01:32:15,0.000,0.0,0.0,0.0
20/03/2023,01:33:16,0.000,0.0,0.0,0.0
20/03/2023,01:34:16,-0.001,0.0,0.0,0.0
20/03/2023,01:35:16,-0.000,0.0,0.0,0.0
20/03/2023,01:36:16,0.000,0.0,0.0,0.0
20/03/2023,01:37:16,0.000,0.0,0.0,0.0
20/03/2023,01:38:16,-0.000,0.0,0.0,0.0
20/03/2023,01:39:15,-0.001,0.0,0.0,0.0
20/03/2023,01:40:17,0.000,0.0,0.0,0.0
20/03/2023,01:41:16,0.000,0.0,0.0,0.0
20/03/2023,01:42:16,0.000,0.0,0.0,0.0
20/03/2023,01:43:16,0.000,0.0,0.0,0.0
20/03/2023,01:44:16,0.000,0.0,0.0,0.0
20/03/2023,01:45:16,0.000,0.0,0.0,0.0
20/03/2023,01:46:16,0.000,0.0,0.0,0.0
20/03/2023,01:47:16,0.000,0.0,0.0,0.0
20/03/2023,01:48:16,0.000,0.0,0.0,0.0
20/03/2023,01:49:16,0.000,0.0,0.0,0.0
20/03/2023,01:50:15,0.000,0.0,0.0,0.0
20/03/2023,01:51:16,0.000,0.0,0.0,0.0
20/03/2023,01:52:16,-0.000,0.0,0.0,0.0
20/03/2023,01:53:16,0.001,0.0,0.0,0.0
20/03/2023,01:54:15,0.000,0.0,0.0,0.0
20/03/2023,01:55:16,0.001,0.0,0.0,0.0
20/03/2023,01:56:16,-0.001,0.0,0.0,0.0
20/03/2023,01:57:16,0.000,0.0,0.0,0.0
20/03/2023,01:58:16,0.000,0.0,0.0,0.0
20/03/2023,01:59:16,0.000,0.0,0.0,0.0
20/03/2023,02:00:16,0.001,0.0,0.0,0.0
20/03/2023,02:01:16,0.001,0.0,0.0,0.0
20/03/2023,02:02:16,0.000,0.0,0.0,0.0
20/03/2023,02:03:16,0.000,0.0,0.0,0.0
20/03/2023,02:04:16,-0.000,0.0,0.0,0.0
20/03/2023,02:05:16,-0.000,0.0,0.0,0.0
20/03/2023,02:06:16,0.001,0.0,0.0,0.0
20/03/2023,02:07:16,0.000,0.0,0.0,0.0
20/03/2023,02:08:16,0.000,0.0,0.0,0.0
20/03/2023,02:09:16,0.001,0.0,0.0,0.0
20/03/2023,02:10:16,0.000,0.0,0.0,0.0
20/03/2023,02:11:16,0.001,0.0,0.0,0.0
20/03/2023,02:12:16,-0.000,0.0,0.0,0.0
20/03/2023,02:13:16,-0.001,0.0,0.0,0.0
20/03/2023,02:14:16,-0.000,0.0,0.0,0.0
20/03/2023,02:15:16,0.001,0.0,0.0,0.0
20/03/2023,02:16:16,0.001,0.0,0.0,0.0
20/03/2023,02:17:16,0.001,0.0,0.0,0.0
20/03/2023,02:18:16,-0.000,0.0,0.0,0.0
20/03/2023,02:19:16,-0.000,0.0,0.0,0.0
20/03/2023,02:20:16,0.001,0.0,0.0,0.0
20/03/2023,02:21:16,0.000,0.0,0.0,0.0
20/03/2023,02:22:16,-0.001,0.0,0.0,0.0
20/03/2023,02:23:16,-0.000,0.0,0.0,0.0
20/03/2023,02:24:16,0.000,0.0,0.0,0.0
20/03/2023,02:25:15,0.000,0.0,0.0,0.0
20/03/2023,02:26:16,0.001,0.0,0.0,0.0
20/03/2023,02:27:16,0.000,0.0,0.0,0.0
20/03/2023,02:28:16,-0.000,0.0,0.0,0.0
20/03/2023,02:29:16,-0.000,0.0,0.0,0.0
20/03/2023,02:30:16,-0.000,0.0,0.0,0.0
20/03/2023,02:31:16,-0.000,0.0,0.0,0.0
20/03/2023,02:32:16,0.000,0.0,0.0,0.0
20/03/2023,02:33:16,0.001,0.0,0.0,0.0
20/03/2023,02:34:16,0.000,0.0,0.0,0.0
20/03/2023,02:35:16,-0.000,0.0,0.0,0.0
20/03/2023,02:36:16,-0.000,0.0,0.0,0.0
20/03/2023,02:37:16,-0.000,0.0,0.0,0.0
20/03/2023,02:38:16,-0.000,0.0,0.0,0.0
20/03/2023,02:39:16,0.001,0.0,0.0,0.0
20/03/2023,02:40:16,-0.000,0.0,0.0,0.0
20/03/2023,02:41:16,-0.001,0.0,0.0,0.0
20/03/2023,02:42:16,0.000,0.0,0.0,0.0
20/03/2023,02:43:16,-0.000,0.0,0.0,0.0
20/03/2023,02:44:16,0.000,0.0,0.0,0.0
20/03/2023,02:45:16,-0.001,0.0,0.0,0.0
20/03/2023,02:46:16,-0.000,0.0,0.0,0.0
20/03/2023,02:47:16,0.000,0.0,0.0,0.0
20/03/2023,02:48:16,-0.001,0.0,0.0,0.0
20/03/2023,02:49:16,-0.000,0.0,0.0,0.0
20/03/2023,02:50:16,-0.000,0.0,0.0,0.0
20/03/2023,02:51:16,-0.000,0.0,0.0,0.0
20/03/2023,02:52:16,0.000,0.0,0.0,0.0
20/03/2023,02:53:16,0.000,0.0,0.0,0.0
20/03/2023,02:54:16,0.000,0.0,0.0,0.0
20/03/2023,02:55:16,0.001,0.0,0.0,0.0
20/03/2023,02:56:16,-0.001,0.0,0.0,0.0
20/03/2023,02:57:16,-0.002,0.0,0.0,0.0
20/03/2023,02:58:16,-0.000,0.0,0.0,0.0
20/03/2023,02:59:15,-0.000,0.0,0.0,0.0
20/03/2023,03:00:16,-0.000,0.0,0.0,0.0
20/03/2023,03:01:16,-0.000,0.0,0.0,0.0
20/03/2023,03:02:16,-0.000,0.0,0.0,0.0
20/03/2023,03:03:16,0.000,0.0,0.0,0.0
20/03/2023,03:04:16,0.000,0.0,0.0,0.0
20/03/2023,03:05:17,-0.000,0.0,0.0,0.0
20/03/2023,03:06:15,0.000,0.0,0.0,0.0
20/03/2023,03:07:16,-0.000,0.0,0.0,0.0
20/03/2023,03:08:16,0.000,0.0,0.0,0.0
20/03/2023,03:09:16,0.000,0.0,0.0,0.0
20/03/2023,03:10:16,-0.000,0.0,0.0,0.0
20/03/2023,03:11:16,-0.000,0.0,0.0,0.0
20/03/2023,03:12:16,-0.001,0.0,0.0,0.0
20/03/2023,03:13:15,-0.000,0.0,0.0,0.0
20/03/2023,03:14:16,-0.000,0.0,0.0,0.0
20/03/2023,03:15:16,-0.000,0.0,0.0,0.0
20/03/2023,03:16:16,-0.000,0.0,0.0,0.0
20/03/2023,03:17:16,-0.000,0.0,0.0,0.0
20/03/2023,03:18:16,-0.000,0.0,0.0,0.0
20/03/2023,03:19:16,-0.000,0.0,0.0,0.0
20/03/2023,03:20:16,0.000,0.0,0.0,0.0
20/03/2023,03:21:16,-0.000,0.0,0.0,0.0
20/03/2023,03:22:16,-0.000,0.0,0.0,0.0
20/03/2023,03:23:16,-0.001,0.0,0.0,0.0
20/03/2023,03:24:17,-0.001,0.0,0.0,0.0
20/03/2023,03:25:16,-0.000,0.0,0.0,0.0
20/03/2023,03:26:16,-0.000,0.0,0.0,0.0
20/03/2023,03:27:16,-0.001,0.0,0.0,0.0
20/03/2023,03:28:16,-0.000,0.0,0.0,0.0
20/03/2023,03:29:16,-0.001,0.0,0.0,0.0
20/03/2023,03:30:16,-0.000,0.0,0.0,0.0
20/03/2023,03:31:16,-0.001,0.0,0.0,0.0
20/03/2023,03:32:16,-0.000,0.0,0.0,0.0
20/03/2023,03:33:16,0.000,0.0,0.0,0.0
20/03/2023,03:34:16,-0.001,0.0,0.0,0.0
20/03/2023,03:35:16,-0.000,0.0,0.0,0.0
20/03/2023,03:36:16,-0.000,0.0,0.0,0.0
20/03/2023,03:37:16,-0.001,0.0,0.0,0.0
20/03/2023,03:38:16,-0.000,0.0,0.0,0.0
20/03/2023,03:39:16,-0.000,0.0,0.0,0.0
20/03/2023,03:40:16,-0.000,0.0,0.0,0.0
20/03/2023,03:41:16,-0.000,0.0,0.0,0.0
20/03/2023,03:42:16,-0.000,0.0,0.0,0.0
20/03/2023,03:43:16,-0.000,0.0,0.0,0.0
20/03/2023,03:44:16,-0.001,0.0,0.0,0.0
20/03/2023,03:45:16,-0.001,0.0,0.0,0.0
20/03/2023,03:46:16,-0.001,0.0,0.0,0.0
20/03/2023,03:47:16,-0.001,0.0,0.0,0.0
20/03/2023,03:48:16,-0.001,0.0,0.0,0.0
20/03/2023,03:49:16,0.000,0.0,0.0,0.0
20/03/2023,03:50:17,-0.000,0.0,0.0,0.0
20/03/2023,03:51:16,-0.000,0.0,0.0,0.0
20/03/2023,03:52:16,-0.001,0.0,0.0,0.0
20/03/2023,03:53:16,-0.000,0.0,0.0,0.0
20/03/2023,03:54:16,-0.000,0.0,0.0,0.0
20/03/2023,03:55:16,-0.000,0.0,0.0,0.0
20/03/2023,03:56:16,0.001,0.0,0.0,0.0
20/03/2023,03:57:17,-0.001,0.0,0.0,0.0
20/03/2023,03:58:16,-0.000,0.0,0.0,0.0
20/03/2023,03:59:16,-0.000,0.0,0.0,0.0
20/03/2023,04:00:17,0.000,0.0,0.0,0.0
20/03/2023,04:01:16,-0.000,0.0,0.0,0.0
20/03/2023,04:02:16,-0.001,0.0,0.0,0.0
20/03/2023,04:03:16,-0.000,0.0,0.0,0.0
20/03/2023,04:04:16,-0.000,0.0,0.0,0.0
20/03/2023,04:05:16,-0.000,0.0,0.0,0.0
20/03/2023,04:06:16,-0.001,0.0,0.0,0.0
20/03/2023,04:07:16,-0.000,0.0,0.0,0.0
20/03/2023,04:08:16,0.000,0.0,0.0,0.0
20/03/2023,04:09:17,-0.000,0.0,0.0,0.0
20/03/2023,04:10:16,-0.001,0.0,0.0,0.0
20/03/2023,04:11:16,-0.001,0.0,0.0,0.0
20/03/2023,04:12:16,-0.001,0.0,0.0,0.0
20/03/2023,04:13:16,0.000,0.0,0.0,0.0
20/03/2023,04:14:16,-0.000,0.0,0.0,0.0
20/03/2023,04:15:16,0.000,0.0,0.0,0.0
20/03/2023,04:16:16,-0.000,0.0,0.0,0.0
20/03/2023,04:17:16,-0.001,0.0,0.0,0.0
20/03/2023,04:18:16,0.000,0.0,0.0,0.0
20/03/2023,04:19:16,-0.000,0.0,0.0,0.0
20/03/2023,04:20:16,0.001,0.0,0.0,0.0
20/03/2023,04:21:16,-0.000,0.0,0.0,0.0
20/03/2023,04:22:16,-0.000,0.0,0.0,0.0
20/03/2023,04:23:17,0.000,0.0,0.0,0.0
20/03/2023,04:24:16,0.000,0.0,0.0,0.0
20/03/2023,04:25:16,-0.000,0.0,0.0,0.0
20/03/2023,04:26:16,0.000,0.0,0.0,0.0
20/03/2023,04:27:17,0.001,0.0,0.0,0.0
20/03/2023,04:28:15,-0.000,0.0,0.0,0.0
20/03/2023,04:29:16,-0.000,0.0,0.0,0.0
20/03/2023,04:30:16,-0.000,0.0,0.0,0.0
20/03/2023,04:31:16,-0.000,0.0,0.0,0.0
20/03/2023,04:32:16,0.001,0.0,0.0,0.0
20/03/2023,04:33:16,0.001,0.0,0.0,0.0
20/03/2023,04:34:16,0.000,0.0,0.0,0.0
20/03/2023,04:35:16,-0.000,0.0,0.0,0.0
20/03/2023,04:36:16,-0.000,0.0,0.0,0.0
20/03/2023,04:37:16,0.000,0.0,0.0,0.0
20/03/2023,04:38:16,-0.000,0.0,0.0,0.0
20/03/2023,04:39:16,0.000,0.0,0.0,0.0
20/03/2023,04:40:17,0.000,0.0,0.0,0.0
20/03/2023,04:41:17,-0.000,0.0,0.0,0.0
20/03/2023,04:42:16,-0.000,0.0,0.0,0.0
20/03/2023,04:43:17,-0.001,0.0,0.0,0.0
20/03/2023,04:44:16,-0.000,0.0,0.0,0.0
20/03/2023,04:45:16,-0.000,0.0,0.0,0.0
20/03/2023,04:46:16,-0.000,0.0,0.0,0.0
20/03/2023,04:47:16,0.001,0.0,0.0,0.0
20/03/2023,04:48:16,-0.000,0.0,0.0,0.0
20/03/2023,04:49:16,-0.000,0.0,0.0,0.0
20/03/2023,04:50:16,0.001,0.0,0.0,0.0
20/03/2023,04:51:17,-0.000,0.0,0.0,0.0
20/03/2023,04:52:16,-0.000,0.0,0.0,0.0
20/03/2023,04:53:16,-0.000,0.0,0.0,0.0
20/03/2023,04:54:16,-0.001,0.0,0.0,0.0
20/03/2023,04:55:16,-0.000,0.0,0.0,0.0
20/03/2023,04:56:17,0.001,0.0,0.0,0.0
20/03/2023,04:57:16,-0.000,0.0,0.0,0.0
20/03/2023,04:58:16,-0.000,0.0,0.0,0.0
20/03/2023,04:59:16,0.001,0.0,0.0,0.0
20/03/2023,05:00:17,-0.000,0.0,0.0,0.0
20/03/2023,05:01:16,-0.000,0.0,0.0,0.0
20/03/2023,05:02:17,-0.000,0.0,0.0,0.0
20/03/2023,05:03:17,-0.000,0.0,0.0,0.0
20/03/2023,05:04:16,-0.000,0.0,0.0,0.0
20/03/2023,05:05:16,-0.000,0.0,0.0,0.0
20/03/2023,05:06:17,-0.000,0.0,0.0,0.0
20/03/2023,05:07:16,-0.000,0.0,0.0,0.0
20/03/2023,05:08:16,-0.000,0.0,0.0,0.0
20/03/2023,05:09:16,-0.000,0.0,0.0,0.0
20/03/2023,05:10:16,-0.001,0.0,0.0,0.0
20/03/2023,05:11:16,-0.001,0.0,0.0,0.0
20/03/2023,05:12:16,-0.001,0.0,0.0,0.0
20/03/2023,05:13:17,0.000,0.0,0.0,0.0
20/03/2023,05:14:16,-0.000,0.0,0.0,0.0
20/03/2023,05:15:17,-0.000,0.0,0.0,0.0
20/03/2023,05:16:17,-0.000,0.0,0.0,0.0
20/03/2023,05:17:16,-0.001,0.0,0.0,0.0
20/03/2023,05:18:54,0.000,0.0,0.0,0.0
20/03/2023,05:20:17,-0.000,0.0,0.0,0.0
20/03/2023,05:21:16,-0.001,0.0,0.0,0.0
20/03/2023,05:22:16,-0.000,0.0,0.0,0.0
20/03/2023,05:23:16,0.000,0.0,0.0,0.0
20/03/2023,05:24:16,-0.001,0.0,0.0,0.0
20/03/2023,05:25:16,-0.001,0.0,0.0,0.0
20/03/2023,05:26:16,-0.000,0.0,0.0,0.0
20/03/2023,05:27:16,-0.000,0.0,0.0,0.0
20/03/2023,05:28:16,-0.001,0.0,0.0,0.0
20/03/2023,05:29:16,-0.000,0.0,0.0,0.0
20/03/2023,05:30:16,0.000,0.0,0.0,0.0
20/03/2023,05:31:16,-0.000,0.0,0.0,0.0
20/03/2023,05:32:16,-0.001,0.0,0.0,0.0
20/03/2023,05:33:16,-0.000,0.0,0.0,0.0
20/03/2023,05:34:16,0.000,0.0,0.0,0.0
20/03/2023,05:35:17,-0.000,0.0,0.0,0.0
20/03/2023,05:36:16,-0.001,0.0,0.0,0.0
20/03/2023,05:37:16,-0.001,0.0,0.0,0.0
20/03/2023,05:38:16,-0.000,0.0,0.0,0.0
20/03/2023,05:39:16,-0.000,0.0,0.0,0.0
20/03/2023,05:40:16,-0.000,0.0,0.0,0.0
20/03/2023,05:41:16,-0.000,0.0,0.0,0.0
20/03/2023,05:42:17,-0.000,0.0,0.0,0.0
20/03/2023,05:43:16,-0.001,0.0,0.0,0.0
20/03/2023,05:44:17,-0.001,0.0,0.0,0.0
20/03/2023,05:45:17,-0.000,0.0,0.0,0.0
20/03/2023,05:46:16,-0.000,0.0,0.0,0.0
20/03/2023,05:47:16,0.000,0.0,0.0,0.0
20/03/2023,05:48:16,-0.000,0.0,0.0,0.0
20/03/2023,05:49:16,-0.001,0.0,0.0,0.0
20/03/2023,05:50:16,-0.001,0.0,0.0,0.0
20/03/2023,05:51:16,0.001,0.0,0.0,0.0
20/03/2023,05:52:16,-0.001,0.0,0.0,0.0
20/03/2023,05:53:16,0.000,0.0,0.0,0.0
20/03/2023,05:54:16,-0.001,0.0,0.0,0.0
20/03/2023,05:55:16,-0.000,0.0,0.0,0.0
20/03/2023,05:56:17,-0.000,0.0,0.0,0.0
20/03/2023,05:57:16,-0.001,0.0,0.0,0.0
20/03/2023,05:58:16,-0.000,0.0,0.0,0.0
20/03/2023,05:59:17,-0.000,0.0,0.0,0.0
20/03/2023,06:00:17,-0.001,0.0,0.0,0.0
20/03/2023,06:01:16,-0.000,0.0,0.0,0.0
20/03/2023,06:02:17,-0.000,0.0,0.0,0.0
20/03/2023,06:03:17,-0.000,0.0,0.0,0.0
20/03/2023,06:04:17,-0.001,0.0,0.0,0.0
20/03/2023,06:05:16,-0.001,0.0,0.0,0.0
20/03/2023,06:06:16,-0.000,0.0,0.0,0.0
20/03/2023,06:07:16,-0.000,0.0,0.0,0.0
20/03/2023,06:08:16,-0.001,0.0,0.0,0.0
20/03/2023,06:09:16,0.001,0.0,0.0,0.0
20/03/2023,06:10:16,-0.000,0.0,0.0,0.0
20/03/2023,06:11:16,-0.001,0.0,0.0,0.0
20/03/2023,06:12:16,0.000,0.0,0.0,0.0
20/03/2023,06:13:16,0.001,0.0,0.0,0.0
20/03/2023,06:14:16,0.000,0.0,0.0,0.0
20/03/2023,06:15:16,-0.000,0.0,0.0,0.0
20/03/2023,06:16:16,0.000,0.0,0.0,0.0
20/03/2023,06:17:17,0.000,0.0,0.0,0.0
20/03/2023,06:18:16,0.000,0.0,0.0,0.0
20/03/2023,06:19:16,0.000,0.0,0.0,0.0
20/03/2023,06:20:17,0.000,0.0,0.0,0.0
20/03/2023,06:21:16,0.001,0.0,0.0,0.0
20/03/2023,06:22:16,0.001,0.0,0.0,0.0
20/03/2023,06:23:17,0.001,0.0,0.0,0.0
20/03/2023,06:24:17,0.001,0.0,0.0,0.0
20/03/2023,06:25:17,0.001,0.0,0.0,0.0
20/03/2023,06:26:17,0.001,0.0,0.0,0.0
20/03/2023,06:27:16,0.002,0.0,0.0,0.0
20/03/2023,06:28:16,0.002,0.0,0.0,0.0
20/03/2023,06:29:16,0.002,0.0,0.0,0.0
20/03/2023,06:30:16,0.001,0.0,0.0,0.0
20/03/2023,06:31:16,0.001,0.0,0.0,0.0
20/03/2023,06:32:17,0.002,0.0,0.0,0.0
20/03/2023,06:33:16,0.002,0.0,0.0,0.0
20/03/2023,06:34:17,0.001,0.0,0.0,0.0
20/03/2023,06:35:16,0.002,0.0,0.0,0.0
20/03/2023,06:36:16,0.002,0.0,0.0,0.0
20/03/2023,06:37:16,0.003,0.0,0.0,0.0
20/03/2023,06:38:16,0.003,0.0,0.0,0.0
20/03/2023,06:39:17,0.002,0.0,0.0,0.0
20/03/2023,06:40:16,0.004,0.0,0.0,0.0
20/03/2023,06:41:16,0.004,0.0,0.0,0.0
20/03/2023,06:42:16,0.003,0.0,0.0,0.0
20/03/2023,06:43:17,0.004,0.0,0.0,0.0
20/03/2023,06:44:16,0.004,0.0,0.0,0.0
20/03/2023,06:45:17,0.004,0.0,0.0,0.0
20/03/2023,06:46:17,0.005,0.0,0.0,0.0
20/03/2023,06:47:16,0.005,0.0,0.0,0.0
20/03/2023,06:48:17,0.006,0.0,0.0,0.0
20/03/2023,06:49:16,0.007,0.0,0.0,0.0
20/03/2023,06:50:16,0.007,0.0,0.0,0.0
20/03/2023,06:51:16,0.007,0.0,0.0,0.0
20/03/2023,06:52:16,0.007,0.0,0.0,0.0
20/03/2023,06:53:16,0.008,0.0,0.001,0.001
20/03/2023,06:54:16,0.007,0.0,0.001,0.0
20/03/2023,06:55:16,0.008,0.0,0.001,0.0
20/03/2023,06:56:16,0.009,0.0,0.001,0.0
20/03/2023,06:57:16,0.009,0.0,0.001,0.0
20/03/2023,06:58:16,0.009,0.0,0.001,0.0
20/03/2023,06:59:16,0.009,0.0,0.001,0.0
20/03/2023,07:00:16,0.009,0.0,0.001,0.0
20/03/2023,07:01:16,0.010,0.0,0.002,0.001
20/03/2023,07:02:16,0.009,0.0,0.002,0.0
20/03/2023,07:03:17,0.008,0.0,0.002,0.0
20/03/2023,07:04:17,0.008,0.0,0.002,0.0
20/03/2023,07:05:17,0.010,0.0,0.002,0.0
20/03/2023,07:06:16,0.010,0.0,0.002,0.0
20/03/2023,07:07:17,0.011,0.0,0.003,0.001
20/03/2023,07:08:17,0.011,0.0,0.003,0.0
20/03/2023,07:09:16,0.011,0.0,0.003,0.0
20/03/2023,07:10:16,0.012,0.0,0.003,0.0
20/03/2023,07:11:16,0.012,0.0,0.003,0.0
20/03/2023,07:12:16,0.012,0.0,0.003,0.0
20/03/2023,07:13:17,0.014,0.0,0.004,0.001
20/03/2023,07:14:17,0.015,0.0,0.004,0.0
20/03/2023,07:15:16,0.016,0.0,0.004,0.0
20/03/2023,07:16:16,0.015,0.0,0.004,0.0
20/03/2023,07:17:17,0.017,0.0,0.005,0.001
20/03/2023,07:18:16,0.018,0.0,0.005,0.0
20/03/2023,07:19:17,0.018,0.0,0.005,0.0
20/03/2023,07:20:17,0.021,0.0,0.006,0.001
20/03/2023,07:21:16,0.023,0.0,0.006,0.0
20/03/2023,07:22:17,0.026,0.0,0.006,0.0
20/03/2023,07:23:16,0.030,0.0,0.007,0.001
20/03/2023,07:24:17,0.031,0.0,0.007,0.0
20/03/2023,07:25:17,0.034,0.0,0.008,0.001
20/03/2023,07:26:16,0.034,0.0,0.008,0.0
20/03/2023,07:27:16,0.035,0.0,0.009,0.001
20/03/2023,07:28:18,0.037,0.0,0.01,0.001
20/03/2023,07:29:18,0.037,0.0,0.01,0.0
20/03/2023,07:30:16,0.039,0.0,0.011,0.001
20/03/2023,07:31:16,0.041,0.0,0.011,0.0
20/03/2023,07:32:16,0.043,0.0,0.012,0.001
20/03/2023,07:33:16,0.046,0.0,0.013,0.001
20/03/2023,07:34:16,0.046,0.0,0.014,0.001
20/03/2023,07:35:16,0.050,0.0,0.014,0.0
20/03/2023,07:36:17,0.049,0.0,0.015,0.001
20/03/2023,07:37:17,0.049,0.0,0.016,0.001
20/03/2023,07:38:17,0.051,0.0,0.017,0.001
20/03/2023,07:39:17,0.053,0.0,0.018,0.001
20/03/2023,07:40:16,0.054,0.0,0.019,0.001
20/03/2023,07:41:16,0.055,0.0,0.02,0.001
20/03/2023,07:42:16,0.056,0.0,0.021,0.001
20/03/2023,07:43:16,0.060,0.0,0.022,0.001
20/03/2023,07:44:16,0.061,0.0,0.023,0.001
20/03/2023,07:45:16,0.064,0.0,0.024,0.001
20/03/2023,07:46:16,0.065,0.0,0.025,0.001
20/03/2023,07:47:16,0.064,0.0,0.026,0.001
20/03/2023,07:48:16,0.068,0.0,0.027,0.001
20/03/2023,07:49:16,0.070,0.0,0.028,0.001
20/03/2023,07:50:16,0.075,0.0,0.029,0.001
20/03/2023,07:51:16,0.075,0.0,0.03,0.001
20/03/2023,07:52:16,0.084,0.0,0.032,0.002
20/03/2023,07:53:16,0.083,0.0,0.033,0.001
20/03/2023,07:54:16,0.086,0.0,0.035,0.002
20/03/2023,07:55:16,0.091,0.0,0.036,0.001
20/03/2023,07:56:17,0.094,0.0,0.038,0.002
20/03/2023,07:57:16,0.099,0.0,0.039,0.001
20/03/2023,07:58:16,0.099,0.0,0.041,0.002
20/03/2023,07:59:16,0.100,0.0,0.043,0.002
20/03/2023,08:00:16,0.106,0.0,0.044,0.001
20/03/2023,08:01:16,0.105,0.0,0.046,0.002
20/03/2023,08:02:16,0.103,0.0,0.048,0.002
20/03/2023,08:03:16,0.108,0.0,0.05,0.002
20/03/2023,08:04:17,0.111,0.0,0.051,0.001
20/03/2023,08:05:17,0.114,0.0,0.053,0.002
20/03/2023,08:06:16,0.109,0.0,0.055,0.002
20/03/2023,08:07:17,0.119,0.0,0.057,0.002
20/03/2023,08:08:17,0.120,0.0,0.059,0.002
20/03/2023,08:09:17,0.122,0.0,0.061,0.002
20/03/2023,08:10:15,0.117,0.0,0.063,0.002
20/03/2023,08:11:17,0.112,0.0,0.065,0.002
20/03/2023,08:12:17,0.112,0.0,0.067,0.002
20/03/2023,08:13:17,0.123,0.0,0.069,0.002
20/03/2023,08:14:16,0.123,0.0,0.071,0.002
20/03/2023,08:15:16,0.130,0.0,0.073,0.002
20/03/2023,08:16:16,0.136,0.0,0.075,0.002
20/03/2023,08:17:16,0.129,0.0,0.077,0.002
20/03/2023,08:18:16,0.130,0.0,0.079,0.002
20/03/2023,08:19:16,0.121,0.0,0.081,0.002
20/03/2023,08:20:16,0.109,0.0,0.083,0.002
20/03/2023,08:21:17,0.107,0.0,0.085,0.002
20/03/2023,08:22:16,0.112,0.0,0.087,0.002
20/03/2023,08:23:16,0.122,0.0,0.089,0.002
20/03/2023,08:24:16,0.121,0.0,0.091,0.002
20/03/2023,08:25:16,0.120,0.0,0.093,0.002
20/03/2023,08:26:16,0.136,0.0,0.095,0.002
20/03/2023,08:27:17,0.145,0.0,0.097,0.002
20/03/2023,08:28:17,0.155,0.0,0.1,0.003
20/03/2023,08:29:17,0.139,0.0,0.102,0.002
20/03/2023,08:30:16,0.133,0.0,0.105,0.003
20/03/2023,08:31:17,0.116,0.0,0.107,0.002
20/03/2023,08:32:17,0.115,0.0,0.109,0.002
20/03/2023,08:33:16,0.111,0.0,0.111,0.002
20/03/2023,08:34:16,0.097,0.0,0.112,0.001
20/03/2023,08:35:16,0.089,0.0,0.114,0.002
20/03/2023,08:36:16,0.103,0.0,0.115,0.001
20/03/2023,08:37:16,0.097,0.0,0.117,0.002
20/03/2023,08:38:17,0.099,0.0,0.119,0.002
20/03/2023,08:39:17,0.094,0.0,0.12,0.001
20/03/2023,08:40:17,0.094,0.0,0.122,0.002
20/03/2023,08:41:17,0.101,0.0,0.124,0.002
20/03/2023,08:42:17,0.095,0.0,0.125,0.001
20/03/2023,08:43:16,0.115,0.0,0.127,0.002
20/03/2023,08:44:17,0.102,0.0,0.129,0.002
20/03/2023,08:45:16,0.102,0.0,0.13,0.001
20/03/2023,08:46:17,0.103,0.0,0.132,0.002
20/03/2023,08:47:16,0.115,0.0,0.134,0.002
20/03/2023,08:48:17,0.102,0.0,0.136,0.002
20/03/2023,08:49:16,0.094,0.0,0.137,0.001
20/03/2023,08:50:17,0.101,0.0,0.139,0.002
20/03/2023,08:51:17,0.107,0.0,0.141,0.002
20/03/2023,08:52:17,0.104,0.0,0.142,0.001
20/03/2023,08:53:17,0.101,0.0,0.144,0.002
20/03/2023,08:54:16,0.095,0.0,0.146,0.002
20/03/2023,08:55:20,0.092,0.0,0.147,0.001
20/03/2023,08:56:18,0.097,0.0,0.149,0.002
20/03/2023,08:57:16,0.106,0.0,0.151,0.002
20/03/2023,08:58:16,0.115,0.0,0.152,0.001
20/03/2023,08:59:17,0.128,0.0,0.154,0.002
20/03/2023,09:00:17,0.139,0.0,0.157,0.003
20/03/2023,09:01:16,0.133,0.0,0.159,0.002
20/03/2023,09:02:17,0.134,0.0,0.161,0.002
20/03/2023,09:03:17,0.139,0.0,0.164,0.003
20/03/2023,09:04:17,0.162,0.0,0.166,0.002
20/03/2023,09:05:17,0.155,0.0,0.169,0.003
20/03/2023,09:06:17,0.154,0.0,0.171,0.002
20/03/2023,09:07:16,0.184,0.0,0.174,0.003
20/03/2023,09:08:16,0.194,0.0,0.177,0.003
20/03/2023,09:09:17,0.185,0.0,0.18,0.003
20/03/2023,09:10:16,0.176,0.0,0.183,0.003
20/03/2023,09:11:17,0.159,0.0,0.186,0.003
20/03/2023,09:12:17,0.153,0.0,0.189,0.003
20/03/2023,09:13:16,0.141,0.0,0.191,0.002
20/03/2023,09:14:17,0.144,0.0,0.194,0.003
20/03/2023,09:15:17,0.171,0.0,0.196,0.002
20/03/2023,09:16:17,0.199,0.0,0.199,0.003
20/03/2023,09:17:17,0.214,0.0,0.203,0.004
20/03/2023,09:18:17,0.235,1.0,0.206,0.003
20/03/2023,09:19:17,0.254,1.0,0.211,0.005
20/03/2023,09:20:17,0.247,1.0,0.215,0.004
20/03/2023,09:21:17,0.224,1.0,0.219,0.004
20/03/2023,09:22:17,0.220,1.0,0.222,0.003
20/03/2023,09:23:17,0.241,1.0,0.226,0.004
20/03/2023,09:24:16,0.222,1.0,0.23,0.004
20/03/2023,09:25:17,0.228,1.0,0.234,0.004
20/03/2023,09:26:17,0.218,1.0,0.237,0.003
20/03/2023,09:27:16,0.200,0.0,0.241,0.004
20/03/2023,09:28:16,0.162,0.0,0.244,0.003
20/03/2023,09:29:16,0.147,0.0,0.247,0.003
20/03/2023,09:30:16,0.162,0.0,0.249,0.002
20/03/2023,09:31:17,0.185,0.0,0.252,0.003
20/03/2023,09:32:16,0.190,0.0,0.255,0.003
20/03/2023,09:33:16,0.208,0.0,0.258,0.003
20/03/2023,09:34:16,0.188,0.0,0.262,0.004
20/03/2023,09:35:16,0.191,0.0,0.265,0.003
20/03/2023,09:36:16,0.155,0.0,0.268,0.003
20/03/2023,09:37:17,0.148,0.0,0.27,0.002
20/03/2023,09:38:16,0.167,0.0,0.273,0.003
20/03/2023,09:39:16,0.180,0.0,0.276,0.003
20/03/2023,09:40:16,0.181,0.0,0.279,0.003
20/03/2023,09:41:17,0.195,0.0,0.282,0.003
20/03/2023,09:42:16,0.189,0.0,0.285,0.003
20/03/2023,09:43:17,0.204,0.0,0.288,0.003
20/03/2023,09:44:17,0.182,0.0,0.292,0.004
20/03/2023,09:45:16,0.194,0.0,0.295,0.003
20/03/2023,09:46:16,0.193,0.0,0.298,0.003
20/03/2023,09:47:16,0.217,0.0,0.301,0.003
20/03/2023,09:48:17,0.289,1.0,0.306,0.005
20/03/2023,09:49:16,0.271,1.0,0.31,0.004
20/03/2023,09:50:17,0.213,0.0,0.314,0.004
20/03/2023,09:51:18,0.201,0.0,0.318,0.004
20/03/2023,09:52:17,0.184,0.0,0.321,0.003
20/03/2023,09:53:17,0.154,0.0,0.324,0.003
20/03/2023,09:54:17,0.152,0.0,0.326,0.002
20/03/2023,09:55:16,0.154,0.0,0.329,0.003
20/03/2023,09:56:17,0.150,0.0,0.331,0.002
20/03/2023,09:57:16,0.157,0.0,0.334,0.003
20/03/2023,09:58:17,0.158,0.0,0.336,0.002
20/03/2023,09:59:17,0.145,0.0,0.339,0.003
20/03/2023,10:00:17,0.144,0.0,0.341,0.002
20/03/2023,10:01:17,0.143,0.0,0.344,0.003
20/03/2023,10:02:17,0.138,0.0,0.346,0.002
20/03/2023,10:03:17,0.140,0.0,0.348,0.002
20/03/2023,10:04:17,0.172,0.0,0.351,0.003
20/03/2023,10:05:16,0.218,1.0,0.354,0.003
20/03/2023,10:06:16,0.208,0.0,0.358,0.004
20/03/2023,10:07:16,0.178,0.0,0.361,0.003
20/03/2023,10:08:16,0.152,0.0,0.364,0.003
20/03/2023,10:09:17,0.167,0.0,0.366,0.002